Regional Weather Roundup
Issued by NWS

Home | Current Version | Previous Version | Text Only | Print | Product List | Glossary Off
Versions: 1 2 3 4 5 6 7 8 9 10 11 12 13 14 15 16 17 18 19 20 21 22 23 24 25 26 27 28 29 30 31 32 33 34 35 36 37 38 39 40 41 42 43 44 45 46 47 48 49 50

000
ASUS45 KSLC 291010
RWRUT

UTAH REGIONAL WEATHER ROUNDUP
NATIONAL WEATHER SERVICE SALT LAKE CITY UT
400 AM MDT SUN MAY 29 2016

UTZ001>011-023>025-291100-

NORTHERN UTAH

CITY           SKY/WX    TMP DP  RH WIND       PRES   REMARKS
BRIGHAM CITY     N/A     48  41  75 NW5       30.08S
HILL AFB       PTCLDY    52  36  54 E16       30.08S
LOGAN          CLEAR     44  40  85 NW3       30.11R
OGDEN          CLEAR     52  37  56 S6        30.07R
PROVO AIRPORT  PTCLDY    55  41  58 SE7       30.09S
SALT LAKE CITY MOCLDY    57  39  51 S7        30.05S
VERNAL         PTCLDY    50  38  63 NW6       30.13S
WENDOVER       PTCLDY    61  41  48 CALM      30.05R
HEBER CITY     PTCLDY    39  36  87 CALM      30.14R
WEST JORDAN    CLEAR     52  41  66 SW5       30.08S

$$

UTZ012>022-026-027-291100-

SOUTHERN/CENTRAL UTAH

CITY           SKY/WX    TMP DP  RH WIND       PRES   REMARKS
BLANDING       CLEAR     56  31  38 N10       30.18S
BRYCE CANYON   PTCLDY    38  32  79 W8        30.22S WCI  32
CEDAR CITY     PTCLDY    49  36  61 NE5       30.08R
DELTA          PTCLDY    52  41  66 NE6       30.06S
HANKSVILLE     CLEAR     50  34  53 CALM      30.09S
MILFORD        MOCLDY    52  36  54 CALM      30.07R
MOAB/CYNLANDS  CLEAR     53  34  48 SW5       30.06R
PRICE          CLEAR     48  34  58 SE6       30.14R
ST GEORGE      MOSUNNY   66  30  26 CALM      29.94S
KANAB          CLEAR     55  34  44 NE6       30.08R

$$

REGIONAL REPORTS     COLORADO/ARIZONA

CITY           SKY/WX    TMP DP  RH WIND       PRES   REMARKS
CRAIG, CO      CLEAR     35  32  88 W3        30.20S
GRAND JUNCTION CLEAR     52  36  54 S5        30.11S
RIFLE          CLEAR     43  34  70 CALM      30.18S
MONTROSE       CLEAR     48  33  56 SE3       30.18S
CORTEZ         CLOUDY    38  30  73 SE3       30.13F
PAGE, AZ       CLEAR     64  31  28 SW5       30.00S
GRAND CANYON   CLEAR     35  25  66 E3        30.15S
KINGMAN        CLEAR     61  28  28 MISG      29.96S
FLAGSTAFF      CLEAR     35  21  56 CALM      30.17S

$$

REGIONAL REPORTS    NEVADA/IDAHO/WYOMING

CITY           SKY/WX    TMP DP  RH WIND       PRES   REMARKS
LAS VEGAS, NV  PTCLDY    75  26  16 S5        29.82S
ELY            PTCLDY    39  36  89 S8        30.15S WCI  33
ELKO           PTCLDY    51  42  71 E5        30.08S
POCATELLO, ID  CLEAR     40  35  83 E6        30.10S
BURLEY         CLEAR     42  37  82 CALM      30.07S
EVANSTON, WY   CLOUDY    42  30  62 SE5       30.20S
ROCK SPRINGS   CLEAR     43  34  70 S7        30.19R
KEMMERER         N/A     36  30  80 NW6       30.22R WCI  31

$$



USA.gov is the U.S. government's official web portal to all federal, state and local government web resources and services.